Terug naar catalogus

STARLINK-36078

ActiefCommunicatieVLEO
NORAD 67050·PAYLOAD·🇺🇸 United States

Gelanceerd Dec 11, 2025 vanaf Cape Canaveral Space Force Station

Loading…

Volgende Passages (komende 24 uur)

TLE

VersSource: CelesTrak SupGP

Epoch: Sep 15, 2026, 03:16 UTC

1 67050C 25294W   26258.13659722 -.00019146  00000+0 -69387-3 0  2584
2 67050  43.0030  47.9397 0001451 260.9484 160.2606 15.27568610    16

Volg STARLINK-36078 in realtime met AllMySat

Download on the App Store